Погода в Йиглаве

Чехия     49°23′44″N   15°35′06″E
темп.,
°C
ветер,
м/с
пор.,
м/с
влажн.,
%
обл.,
%
осадки,
мм/ч
давл.,
гПа
погр.,
м
14 мая, пт
пт1423:00+7зсз81398100 10.4 1004651
02:00+7зсз81397100 16.9 1005723
05:00+7зсз81397100 2.9 1004741
08:00+7зсз41098100 5.6 1006599
11:00+8зсз4996100 5.0 1008620
14:00+9зсз3892100 5.8 1008601
17:00+12сз357698 0.3 10071003
20:00+9ссв119022 0.8 100810
15 мая, сб
сб1523:00+7ю22936 0.0 101019
02:00+6зюз22925 0.0 101012
05:00+6юз2291100 0.0 101012
08:00+10зюз3485100 0.0 1011252
11:00+12зсз2374100 0.4 1010688
14:00+14ю1263100 1.7 10081154
17:00+14юв3465100 0.4 10061086
20:00+11ю2289100 3.3 100527
16 мая, вс
вс1623:00+9з2493100 1.8 1005107
02:00+7зсз61295100 1.8 1008420
05:00+6з51292100 0.2 1008586
08:00+8з61087100 0.2 1009641
11:00+10зюз6773100 0.1 10091168
14:00+12зюз4568100 0.2 10071385
17:00+12з467098 0.6 1007877
20:00+10юз33845 0.9 100730
17 мая, пн
пн1723:00+7ююз379187 0.2 1008128
02:00+8зюз51193100 0.3 1008410
05:00+7юз41095100 0.2 1008315
08:00+10зюз698598 0.2 1009884
11:00+12зюз797393 0.4 10081272
14:00+13з7963100 0.9 10081643
17:00+12з696896 0.3 10091258
20:00+9з37855 0.5 1010189
18 мая, вт
вт1823:00+6зюз4119415 0.0 1012270
02:00+6зюз5128999 0.0 1011388
05:00+6з613905 0.0 1011479
08:00+8з61086100 0.0 10121066
11:00+8з61090100 0.7 1013807
14:00+9з81287100 1.1 1014983
17:00+9зсз7128618 0.6 1015874
20:00+8з6118756 0.6 1016656